TimeMST,TemperatureF,Dew PointF,Humidity,Sea Level PressureIn,VisibilityMPH,Wind Direction,Wind SpeedMPH,Gust SpeedMPH,PrecipitationIn,Events,Conditions,WindDirDegrees,DateUTC
12:15 AM,35.6,33.8,93,30.24,9.0,Calm,Calm,-,N/A,,Overcast,0,2012-11-05 07:15:00
12:35 AM,35.6,33.8,93,30.23,7.0,SE,3.5,-,N/A,,Overcast,140,2012-11-05 07:35:00
12:55 AM,35.6,33.8,93,30.22,8.0,SSE,3.5,-,N/A,,Overcast,150,2012-11-05 07:55:00
1:15 AM,35.6,33.8,93,30.22,8.0,SW,3.5,-,N/A,,Overcast,220,2012-11-05 08:15:00
1:35 AM,35.6,33.8,93,30.21,9.0,South,6.9,-,N/A,,Overcast,190,2012-11-05 08:35:00
1:55 AM,35.6,33.8,93,30.21,10.0,SSW,4.6,-,N/A,,Overcast,200,2012-11-05 08:55:00
2:15 AM,35.6,32.0,87,30.20,10.0,SSW,5.8,-,N/A,,Overcast,200,2012-11-05 09:15:00
2:55 AM,35.6,33.8,93,30.18,9.0,SSW,9.2,-,N/A,,Overcast,200,2012-11-05 09:55:00
3:15 AM,35.6,32.0,87,30.17,9.0,South,9.2,-,N/A,,Overcast,190,2012-11-05 10:15:00
3:35 AM,35.6,33.8,93,30.16,10.0,SSW,10.4,-,N/A,,Overcast,200,2012-11-05 10:35:00
3:55 AM,35.6,32.0,87,30.16,10.0,South,9.2,-,N/A,,Overcast,190,2012-11-05 10:55:00
4:15 AM,35.6,33.8,93,30.14,10.0,South,10.4,-,N/A,,Overcast,190,2012-11-05 11:15:00
4:35 AM,35.6,33.8,93,30.13,10.0,South,8.1,-,N/A,,Overcast,190,2012-11-05 11:35:00
4:55 AM,35.6,33.8,93,30.13,10.0,South,8.1,-,N/A,,Overcast,190,2012-11-05 11:55:00
5:15 AM,35.6,33.8,93,30.10,10.0,South,10.4,-,N/A,,Overcast,170,2012-11-05 12:15:00
5:35 AM,35.6,33.8,93,30.07,10.0,South,10.4,-,N/A,,Overcast,170,2012-11-05 12:35:00
5:55 AM,35.6,33.8,93,30.07,9.0,South,8.1,-,N/A,,Overcast,180,2012-11-05 12:55:00
6:16 AM,35.6,33.8,93,30.06,8.0,South,6.9,-,N/A,,Overcast,170,2012-11-05 13:16:00
6:35 AM,35.6,33.8,93,30.05,8.0,SSE,8.1,-,N/A,,Overcast,160,2012-11-05 13:35:00
6:55 AM,35.6,33.8,93,30.04,9.0,SSE,8.1,-,N/A,,Overcast,160,2012-11-05 13:55:00
7:15 AM,35.6,33.8,93,30.03,10.0,South,8.1,-,N/A,,Overcast,180,2012-11-05 14:15:00
7:35 AM,37.4,33.8,87,30.03,10.0,South,5.8,-,N/A,,Overcast,170,2012-11-05 14:35:00
7:55 AM,37.4,33.8,87,30.02,10.0,South,6.9,-,N/A,,Overcast,190,2012-11-05 14:55:00
8:15 AM,37.4,35.6,93,30.01,10.0,SSW,6.9,-,N/A,,Overcast,200,2012-11-05 15:15:00
8:55 AM,37.4,35.6,93,29.97,10.0,SSW,13.8,-,N/A,,Scattered Clouds,200,2012-11-05 15:55:00
9:15 AM,39.2,35.6,87,29.95,10.0,SSW,13.8,-,N/A,,Mostly Cloudy,200,2012-11-05 16:15:00
9:35 AM,39.2,35.6,87,29.95,10.0,SSW,10.4,-,N/A,,Overcast,200,2012-11-05 16:35:00
9:55 AM,39.2,35.6,87,29.93,10.0,SSW,15.0,-,N/A,,Mostly Cloudy,200,2012-11-05 16:55:00
10:15 AM,42.8,35.6,76,29.90,10.0,South,18.4,-,N/A,,Overcast,190,2012-11-05 17:15:00
10:35 AM,42.8,35.6,76,29.91,10.0,SSW,12.7,19.6,N/A,,Overcast,200,2012-11-05 17:35:00
10:55 AM,42.8,35.6,76,29.90,10.0,SSW,11.5,16.1,N/A,,Overcast,200,2012-11-05 17:55:00
11:15 AM,44.6,35.6,71,29.88,10.0,South,10.4,-,N/A,,Overcast,180,2012-11-05 18:15:00
11:35 AM,44.6,37.4,76,29.87,10.0,South,12.7,-,N/A,,Overcast,190,2012-11-05 18:35:00
11:55 AM,46.4,37.4,71,29.84,10.0,SSW,16.1,-,N/A,,Overcast,200,2012-11-05 18:55:00
12:15 PM,46.4,37.4,71,29.82,10.0,South,13.8,-,N/A,,Scattered Clouds,190,2012-11-05 19:15:00
12:35 PM,53.6,41.0,62,29.80,10.0,SSW,16.1,19.6,N/A,,Clear,210,2012-11-05 19:35:00
12:55 PM,53.6,44.6,72,29.78,10.0,South,15.0,-,N/A,,Clear,170,2012-11-05 19:55:00
1:15 PM,57.2,42.8,59,29.78,10.0,SW,13.8,-,N/A,,Clear,230,2012-11-05 20:15:00
1:35 PM,64.4,46.4,52,29.77,10.0,West,20.7,27.6,N/A,,Clear,270,2012-11-05 20:35:00
2:15 PM,64.4,44.6,49,29.79,10.0,WNW,25.3,32.2,N/A,,Partly Cloudy,290,2012-11-05 21:15:00
2:55 PM,60.8,46.4,59,29.81,10.0,West,17.3,-,N/A,,Mostly Cloudy,280,2012-11-05 21:55:00
3:15 PM,60.8,46.4,59,29.81,10.0,West,19.6,26.5,N/A,,Mostly Cloudy,280,2012-11-05 22:15:00
3:35 PM,60.8,44.6,55,29.83,10.0,WNW,16.1,20.7,N/A,,Mostly Cloudy,290,2012-11-05 22:35:00
3:55 PM,55.4,41.0,58,29.85,10.0,NNW,26.5,38.0,N/A,,Mostly Cloudy,330,2012-11-05 22:55:00
4:15 PM,51.8,39.2,62,29.90,10.0,NW,31.1,35.7,N/A,,Scattered Clouds,320,2012-11-05 23:15:00
4:35 PM,46.4,35.6,66,29.93,10.0,NW,25.3,36.8,N/A,,Clear,320,2012-11-05 23:35:00
4:55 PM,44.6,35.6,71,29.93,10.0,NW,18.4,-,N/A,,Clear,320,2012-11-05 23:55:00
5:15 PM,44.6,35.6,71,29.95,10.0,NW,18.4,21.9,N/A,,Partly Cloudy,320,2012-11-06 00:15:00
5:35 PM,44.6,35.6,71,29.96,10.0,NW,18.4,23.0,N/A,,Partly Cloudy,320,2012-11-06 00:35:00
5:55 PM,42.8,35.6,76,29.97,10.0,NW,16.1,-,N/A,,Partly Cloudy,310,2012-11-06 00:55:00
6:15 PM,44.6,33.8,66,29.98,10.0,WNW,15.0,-,N/A,,Clear,300,2012-11-06 01:15:00
6:55 PM,41.0,33.8,76,29.99,10.0,WNW,15.0,-,N/A,,Clear,290,2012-11-06 01:55:00
7:15 PM,41.0,33.8,76,30.01,10.0,West,17.3,-,N/A,,Mostly Cloudy,280,2012-11-06 02:15:00
7:35 PM,42.8,33.8,70,30.02,10.0,WNW,18.4,-,N/A,,Overcast,290,2012-11-06 02:35:00
7:55 PM,42.8,33.8,70,30.03,10.0,WNW,16.1,-,N/A,,Overcast,290,2012-11-06 02:55:00
8:15 PM,44.6,32.0,61,30.03,10.0,WNW,18.4,23.0,N/A,,Overcast,290,2012-11-06 03:15:00
8:35 PM,44.6,32.0,61,30.03,10.0,West,13.8,-,N/A,,Overcast,280,2012-11-06 03:35:00
8:55 PM,44.6,30.2,57,30.03,10.0,West,16.1,21.9,N/A,,Overcast,280,2012-11-06 03:55:00
9:15 PM,44.6,30.2,57,30.03,10.0,West,16.1,20.7,N/A,,Overcast,280,2012-11-06 04:15:00
9:55 PM,42.8,30.2,61,30.05,10.0,West,17.3,-,N/A,,Partly Cloudy,270,2012-11-06 04:55:00
10:15 PM,42.8,30.2,61,30.06,10.0,West,18.4,23.0,N/A,,Clear,270,2012-11-06 05:15:00
10:35 PM,42.8,30.2,61,30.06,10.0,West,17.3,24.2,N/A,,Clear,280,2012-11-06 05:35:00
10:55 PM,41.0,30.2,65,30.06,10.0,West,15.0,-,N/A,,Clear,280,2012-11-06 05:55:00
11:15 PM,41.0,30.2,65,30.07,10.0,West,16.1,23.0,N/A,,Clear,280,2012-11-06 06:15:00
11:35 PM,39.2,30.2,70,30.08,10.0,West,15.0,20.7,N/A,,Clear,280,2012-11-06 06:35:00
11:55 PM,39.2,30.2,70,30.09,10.0,West,16.1,-,N/A,,Clear,280,2012-11-06 06:55:00